Wenatchee, WA

1:55 PM PDT on June 22, 2017 (GMT -0700)
Pangborn Memorial

Weather History for KEAT - October, 2011

Change the Weather History Date:

Sunday, October 2, 2011

  Actual Average Record
Temperature  
Mean Temperature 59 °F 51 °F  
Max Temperature 69 °F 65 °F 83 °F (1988)
Min Temperature 49 °F 37 °F 31 °F (2014)
Degree Days  
Heating Degree Days 6 14  
Month to date heating degree days 8 27  
Since 1 July heating degree days 288 383  
Cooling Degree Days 0 0  
Month to date cooling degree days 0 0  
Year to date cooling degree days 161 249  
Growing Degree Days 8 (Base 50)    
Moisture  
Dew Point 44 °F    
Average Humidity 60    
Maximum Humidity 74    
Minimum Humidity 46    
Precipitation  
Precipitation 0.01 in 0.03 in 0.47 in (1967)
Month to date precipitation 0.04 0.05  
Year to date precipitation 12.61 11.10  
Snow  
Snow 0.00 in 0.00 in - ()
Month to date snowfall 0.0 0.0  
Since 1 July snowfall 0.0 0.0  
Since 1 September snowfall 0.0 0.0  
Snow Depth 0.00 in    
Sea Level Pressure  
Sea Level Pressure 29.90 in    
Wind  
Wind Speed 6 mph (NW)    
Max Wind Speed 9 mph    
Max Gust Speed -    
Visibility 10 miles    
Events      
T = Trace of Precipitation, MM = Missing Value Source: NWS Daily Summary

Daily Weather History Graph

Daily Weather History Graph

Search for Another Location

Airport or City:

Trip Planner

Search our weather history database for the weather conditions in past years. The results will help you decide how hot, cold, wet, or windy it might be!

Date:

Astronomy

Oct. 02, 2011 Rise Set
Actual Time 7:00 AM PDT 6:38 PM PDT
Civil Twilight 6:30 AM PDT 7:09 PM PDT
Nautical Twilight 5:54 AM PDT 7:44 PM PDT
Astronomical Twilight 5:18 AM PDT 8:20 PM PDT
Moon 1:36 PM PDT (10/2) 10:18 PM PDT (10/2)
Length of Visible Light 12h 38m
Length of Day
11h 37m
Waxing Crescent, 36% of the Moon is Illuminated
Oct 2
Waxing Crescent
Oct 3
First Quarter
Oct 11
Full
Oct 19
Last Quarter
Oct 26
New

Hourly Weather History & Observations

Time (PDT) Temp. Dew Point Humidity Pressure Visibility Wind Dir Wind Speed Gust Speed Precip Events Conditions
12:55 AM 52.0 °F 39.0 °F 61% 29.91 in 10.0 mi NNW 8.1 mph - N/A   Clear
1:55 AM 50.0 °F 39.9 °F 68% 29.92 in 10.0 mi West 3.5 mph - N/A   Clear
2:55 AM 52.0 °F 39.9 °F 63% 29.92 in 10.0 mi NNW 3.5 mph - N/A   Overcast
3:55 AM 52.0 °F 39.9 °F 63% 29.92 in 10.0 mi NNW 5.8 mph - N/A   Scattered Clouds
4:55 AM 53.1 °F 39.9 °F 61% 29.93 in 10.0 mi NW 4.6 mph - N/A   Mostly Cloudy
5:55 AM 50.0 °F 42.1 °F 74% 29.93 in 10.0 mi West 6.9 mph - 0.00 in   Overcast
6:55 AM 51.1 °F 42.1 °F 71% 29.94 in 10.0 mi West 5.8 mph - N/A   Overcast
7:55 AM 50.0 °F 42.1 °F 74% 29.96 in 10.0 mi West 5.8 mph - N/A   Mostly Cloudy
9:55 AM 54.0 °F 43.0 °F 66% 29.97 in 10.0 mi West 4.6 mph - N/A   Overcast
11:55 AM 60.1 °F 41.0 °F 49% 29.94 in 10.0 mi Calm Calm - N/A   Clear
12:55 PM 63.0 °F 42.1 °F 46% 29.92 in 10.0 mi ESE 8.1 mph - N/A   Clear
1:55 PM 64.9 °F 44.1 °F 47% 29.90 in 10.0 mi ESE 5.8 mph - N/A   Clear
3:55 PM 66.0 °F 46.9 °F 50% 29.87 in 10.0 mi ESE 8.1 mph - N/A   Clear
4:55 PM 66.0 °F 46.9 °F 50% 29.86 in 10.0 mi ESE 8.1 mph - N/A   Overcast
5:55 PM 64.9 °F 46.9 °F 52% 29.85 in 10.0 mi East 6.9 mph - N/A   Mostly Cloudy
6:55 PM 64.9 °F 46.0 °F 50% 29.84 in 10.0 mi ESE 4.6 mph - N/A   Clear
8:55 PM 63.0 °F 46.9 °F 56% 29.84 in 10.0 mi Calm Calm - N/A   Overcast
9:55 PM 60.1 °F 46.9 °F 62% 29.84 in 10.0 mi NW 9.2 mph - N/A   Partly Cloudy
10:55 PM 59.0 °F 48.0 °F 67% 29.83 in 10.0 mi NNW 5.8 mph - N/A   Mostly Cloudy
11:55 PM 57.9 °F 48.0 °F 70% 29.83 in 10.0 mi NW 5.8 mph - N/A   Overcast